15min,AgWx,beryljct,423,14JAN2017:00:00:00,33.2,31.1,92,0,9.2,6.5,57,0.00,0.00,0.07,35.4,37.3,29
15min,AgWx,beryljct,423,14JAN2017:00:15:00,33.2,31.2,92,0,9.7,6.9,45,0.00,0.00,0.07,35.3,37.3,29
15min,AgWx,beryljct,423,14JAN2017:00:30:00,33.2,31.2,92,0,9.1,6.4,45,0.00,0.00,0.07,35.3,37.2,29
15min,AgWx,beryljct,423,14JAN2017:00:45:00,33.2,31.2,92,0,7.7,5.4,39,0.00,0.00,0.06,35.3,37.2,29
15min,AgWx,beryljct,423,14JAN2017:01:00:00,33.2,31.2,92,0,6.9,5.0,42,0.00,0.00,0.06,35.2,37.1,29
15min,AgWx,beryljct,423,14JAN2017:01:15:00,33.2,31.2,92,0,8.6,5.5,26,0.00,0.00,0.04,35.2,37.1,29
15min,AgWx,beryljct,423,14JAN2017:01:30:00,33.3,31.2,92,0,8.9,6.0,26,0.00,0.00,0.04,35.1,37.1,29
15min,AgWx,beryljct,423,14JAN2017:01:45:00,33.2,30.9,91,0,8.3,5.6,27,0.00,0.00,0.04,35.0,37.1,29
15min,AgWx,beryljct,423,14JAN2017:02:00:00,33.2,30.9,91,0,7.5,5.3,31,0.00,0.00,0.04,35.1,37.0,29
15min,AgWx,beryljct,423,14JAN2017:02:15:00,33.1,30.6,91,0,10.5,7.0,25,0.00,0.00,0.03,35.0,37.0,29
15min,AgWx,beryljct,423,14JAN2017:02:30:00,33.1,30.3,90,0,9.7,7.2,31,0.00,0.00,0.03,35.0,37.0,29
15min,AgWx,beryljct,423,14JAN2017:02:45:00,33.0,30.5,90,0,6.8,4.1,50,0.00,0.00,0.03,34.9,37.0,29
15min,AgWx,beryljct,423,14JAN2017:03:00:00,32.9,30.8,92,0,9.3,6.4,43,0.00,0.00,0.03,34.8,36.9,29
15min,AgWx,beryljct,423,14JAN2017:03:15:00,32.9,30.7,92,0,9.9,6.1,55,0.00,0.00,0.03,34.8,36.9,29
15min,AgWx,beryljct,423,14JAN2017:03:30:00,32.8,30.3,90,0,11.5,8.0,58,0.00,0.00,0.03,34.7,36.9,29
15min,AgWx,beryljct,423,14JAN2017:03:45:00,32.8,30.4,90,0,13.7,9.5,48,0.00,0.00,0.03,34.7,36.8,29
15min,AgWx,beryljct,423,14JAN2017:04:00:00,32.9,30.5,91,0,14.1,10.1,40,0.00,0.00,0.03,34.6,36.8,29
15min,AgWx,beryljct,423,14JAN2017:04:15:00,32.9,30.3,90,0,11.8,9.5,35,0.00,0.00,0.01,34.7,36.8,29
15min,AgWx,beryljct,423,14JAN2017:04:30:00,32.8,30.2,90,0,10.8,7.6,26,0.00,0.00,0.01,34.5,36.8,29
15min,AgWx,beryljct,423,14JAN2017:04:45:00,32.4,30.3,91,0,10.4,7.9,21,0.00,0.00,0.01,34.5,36.8,29
15min,AgWx,beryljct,423,14JAN2017:05:00:00,32.0,30.0,92,0,10.4,7.9,17,0.00,0.00,0.01,34.5,36.8,29
15min,AgWx,beryljct,423,14JAN2017:05:15:00,32.1,29.6,91,0,12.4,7.5,20,0.00,0.00,0.01,34.5,36.7,29
15min,AgWx,beryljct,423,14JAN2017:05:30:00,32.1,29.5,90,0,11.1,7.1,29,0.00,0.00,0.01,34.4,36.7,29
15min,AgWx,beryljct,423,14JAN2017:05:45:00,32.0,29.6,91,0,8.7,6.5,45,0.00,0.00,0.01,34.3,36.7,29
15min,AgWx,beryljct,423,14JAN2017:06:00:00,31.8,29.8,92,0,8.6,5.9,53,0.00,0.00,0.01,34.3,36.6,29
15min,AgWx,beryljct,423,14JAN2017:06:15:00,31.7,30.0,93,0,6.8,4.8,53,0.00,0.00,0.01,34.3,36.6,29
15min,AgWx,beryljct,423,14JAN2017:06:30:00,32.0,30.7,96,0,7.0,4.3,54,0.00,0.00,0.01,34.3,36.6,29
15min,AgWx,beryljct,423,14JAN2017:06:45:00,32.0,30.7,95,0,8.5,5.0,52,0.00,0.00,0.01,34.2,36.5,29
15min,AgWx,beryljct,423,14JAN2017:07:00:00,32.1,30.6,95,0,11.7,7.3,49,0.00,0.00,0.01,34.1,36.5,29
15min,AgWx,beryljct,423,14JAN2017:07:15:00,32.3,30.4,93,0,13.9,9.6,43,0.00,0.00,0.01,34.2,36.5,29
15min,AgWx,beryljct,423,14JAN2017:07:30:00,32.2,30.3,93,0,13.9,10.2,39,0.00,0.00,0.01,34.1,36.5,28
15min,AgWx,beryljct,423,14JAN2017:07:45:00,32.1,30.1,92,0,12.5,8.8,41,0.00,0.00,0.01,34.1,36.4,28
15min,AgWx,beryljct,423,14JAN2017:08:00:00,32.1,30.0,92,1,11.6,7.3,38,0.00,0.00,0.01,34.1,36.4,29
15min,AgWx,beryljct,423,14JAN2017:08:15:00,32.2,29.9,91,3,8.3,6.6,43,0.00,0.00,0.01,34.0,36.4,29
15min,AgWx,beryljct,423,14JAN2017:08:30:00,32.1,29.9,91,7,8.6,6.2,42,0.00,0.00,0.01,34.1,36.4,29
15min,AgWx,beryljct,423,14JAN2017:08:45:00,32.1,30.1,92,11,6.9,5.3,48,0.00,0.00,0.01,34.1,36.4,29
15min,AgWx,beryljct,423,14JAN2017:09:00:00,32.4,30.1,91,28,7.1,4.6,42,0.00,0.00,0.01,34.0,36.3,29
15min,AgWx,beryljct,423,14JAN2017:09:15:00,32.6,29.7,89,33,8.1,5.5,52,0.00,0.00,0.01,34.0,36.3,28
15min,AgWx,beryljct,423,14JAN2017:09:30:00,32.7,30.0,89,43,6.1,3.8,66,0.00,0.00,0.01,34.0,36.3,29
15min,AgWx,beryljct,423,14JAN2017:09:45:00,33.4,29.7,87,64,10.6,7.3,30,0.00,0.00,0.01,33.9,36.3,28
15min,AgWx,beryljct,423,14JAN2017:10:00:00,33.5,29.4,85,62,15.1,9.8,33,0.00,0.00,0.01,33.9,36.2,29
15min,AgWx,beryljct,423,14JAN2017:10:15:00,33.4,29.1,84,39,12.7,10.2,42,0.00,0.00,0.01,34.0,36.3,28
15min,AgWx,beryljct,423,14JAN2017:10:30:00,34.0,29.1,83,96,15.0,11.4,31,0.00,0.00,0.01,33.9,36.2,29
15min,AgWx,beryljct,423,14JAN2017:10:45:00,34.1,29.3,83,117,13.4,9.9,32,0.00,0.00,0.01,34.0,36.2,29
15min,AgWx,beryljct,423,14JAN2017:11:00:00,34.0,29.0,82,104,16.4,12.2,31,0.00,0.00,0.01,34.0,36.2,29
15min,AgWx,beryljct,423,14JAN2017:11:15:00,34.0,28.2,79,88,16.9,11.8,31,0.00,0.00,0.01,34.2,36.1,29
15min,AgWx,beryljct,423,14JAN2017:11:30:00,34.4,28.3,78,165,19.1,13.9,30,0.00,0.00,0.01,34.2,36.1,28
15min,AgWx,beryljct,423,14JAN2017:11:45:00,34.6,28.2,78,150,18.3,14.0,29,0.00,0.00,0.01,34.2,36.1,28
15min,AgWx,beryljct,423,14JAN2017:12:00:00,35.0,28.6,78,164,16.9,12.4,37,0.00,0.00,0.00,34.4,36.1,29
15min,AgWx,beryljct,423,14JAN2017:12:15:00,35.3,28.6,77,244,17.8,14.0,31,0.00,0.00,0.00,34.5,36.1,29
15min,AgWx,beryljct,423,14JAN2017:12:30:00,35.3,28.8,77,210,19.3,14.3,31,0.00,0.00,0.00,34.5,36.1,29
15min,AgWx,beryljct,423,14JAN2017:12:45:00,35.0,28.5,77,164,18.9,14.6,31,0.00,0.00,0.00,34.8,36.1,29
15min,AgWx,beryljct,423,14JAN2017:13:00:00,35.5,28.9,77,195,16.8,13.0,40,0.00,0.00,0.00,35.0,36.1,28
15min,AgWx,beryljct,423,14JAN2017:13:15:00,36.0,29.0,77,222,20.3,14.0,43,0.00,0.00,0.00,35.1,36.0,29
15min,AgWx,beryljct,423,14JAN2017:13:30:00,35.9,29.2,76,227,18.6,13.5,43,0.00,0.00,0.00,35.3,36.1,28
15min,AgWx,beryljct,423,14JAN2017:13:45:00,35.5,28.9,76,208,18.8,14.9,50,0.00,0.00,0.00,35.4,36.1,29
15min,AgWx,beryljct,423,14JAN2017:14:00:00,35.9,29.1,77,198,18.2,13.8,46,0.00,0.00,0.00,35.5,36.1,29
15min,AgWx,beryljct,423,14JAN2017:14:15:00,35.6,29.3,77,194,19.4,14.4,44,0.00,0.00,0.00,35.7,36.1,29
15min,AgWx,beryljct,423,14JAN2017:14:30:00,35.2,29.1,78,157,19.4,16.1,47,0.00,0.00,0.00,35.8,36.2,29
15min,AgWx,beryljct,423,14JAN2017:14:45:00,35.9,29.4,78,149,19.5,13.8,51,0.00,0.00,0.00,35.9,36.1,29
15min,AgWx,beryljct,423,14JAN2017:15:00:00,35.9,29.8,79,138,16.4,12.5,48,0.00,0.00,0.00,36.0,36.2,29
15min,AgWx,beryljct,423,14JAN2017:15:15:00,35.6,29.7,79,128,18.1,14.0,47,0.00,0.00,0.00,36.2,36.2,29
15min,AgWx,beryljct,423,14JAN2017:15:30:00,35.3,29.7,80,101,18.2,13.9,47,0.00,0.00,0.00,36.2,36.2,28
15min,AgWx,beryljct,423,14JAN2017:15:45:00,35.2,29.9,80,87,18.4,12.1,46,0.00,0.00,0.00,36.2,36.2,28
15min,AgWx,beryljct,423,14JAN2017:16:00:00,34.9,29.6,80,63,16.8,13.7,44,0.00,0.00,0.00,36.3,36.3,28
15min,AgWx,beryljct,423,14JAN2017:16:15:00,34.9,29.7,81,44,16.1,12.6,40,0.00,0.00,0.00,36.3,36.3,28
15min,AgWx,beryljct,423,14JAN2017:16:30:00,34.6,29.5,81,36,17.5,13.2,36,0.00,0.00,0.00,36.3,36.3,29
15min,AgWx,beryljct,423,14JAN2017:16:45:00,34.3,29.3,81,26,17.8,13.5,37,0.00,0.00,0.00,36.1,36.4,29
15min,AgWx,beryljct,423,14JAN2017:17:00:00,34.3,29.3,82,18,16.6,12.4,34,0.00,0.00,0.00,36.2,36.4,28
15min,AgWx,beryljct,423,14JAN2017:17:15:00,33.8,29.2,82,10,17.8,12.5,35,0.00,0.00,0.00,36.0,36.4,28
15min,AgWx,beryljct,423,14JAN2017:17:30:00,33.8,29.1,82,5,15.2,11.3,33,0.00,0.00,0.00,35.9,36.5,29
15min,AgWx,beryljct,423,14JAN2017:17:45:00,33.5,28.7,82,2,17.7,13.3,39,0.00,0.00,0.00,35.8,36.5,28
15min,AgWx,beryljct,423,14JAN2017:18:00:00,33.4,28.7,82,0,17.0,12.3,40,0.00,0.00,0.00,35.8,36.5,28
15min,AgWx,beryljct,423,14JAN2017:18:15:00,33.3,28.5,82,0,17.3,12.1,37,0.00,0.00,0.00,35.7,36.5,28
15min,AgWx,beryljct,423,14JAN2017:18:30:00,33.0,28.5,83,0,16.1,12.1,35,0.00,0.00,0.00,35.5,36.6,28
15min,AgWx,beryljct,423,14JAN2017:18:45:00,32.9,28.4,83,0,17.7,12.5,32,0.00,0.00,0.00,35.5,36.5,29
15min,AgWx,beryljct,423,14JAN2017:19:00:00,32.9,28.4,83,0,15.1,10.8,26,0.00,0.00,0.00,35.2,36.6,28
15min,AgWx,beryljct,423,14JAN2017:19:15:00,32.9,28.1,82,0,16.6,11.8,28,0.00,0.00,0.00,35.2,36.6,28
15min,AgWx,beryljct,423,14JAN2017:19:30:00,33.0,28.2,83,0,14.6,10.7,29,0.00,0.00,0.00,35.1,36.6,28
15min,AgWx,beryljct,423,14JAN2017:19:45:00,32.8,28.3,83,0,12.5,9.0,29,0.00,0.00,0.00,35.0,36.6,28
15min,AgWx,beryljct,423,14JAN2017:20:00:00,32.7,28.0,82,0,15.3,9.6,38,0.00,0.00,0.00,34.9,36.6,29
15min,AgWx,beryljct,423,14JAN2017:20:15:00,32.6,27.7,82,0,15.2,10.9,36,0.00,0.00,0.00,34.8,36.6,28
15min,AgWx,beryljct,423,14JAN2017:20:30:00,32.4,27.9,83,0,18.1,12.8,44,0.00,0.00,0.00,34.7,36.6,29
15min,AgWx,beryljct,423,14JAN2017:20:45:00,32.4,28.0,83,0,16.1,12.0,41,0.00,0.00,0.00,34.7,36.6,29
15min,AgWx,beryljct,423,14JAN2017:21:00:00,32.4,28.1,84,0,15.3,11.2,34,0.00,0.00,0.00,34.7,36.5,28
15min,AgWx,beryljct,423,14JAN2017:21:15:00,32.6,28.1,84,0,16.7,12.0,33,0.00,0.00,0.00,34.6,36.5,29
15min,AgWx,beryljct,423,14JAN2017:21:30:00,32.3,28.2,84,0,13.9,10.2,29,0.00,0.00,0.00,34.5,36.5,29
15min,AgWx,beryljct,423,14JAN2017:21:45:00,32.3,28.4,85,0,13.4,9.3,33,0.00,0.00,0.00,34.4,36.5,28
15min,AgWx,beryljct,423,14JAN2017:22:00:00,32.1,28.5,86,0,12.5,9.2,36,0.00,0.00,0.00,34.3,36.4,29
15min,AgWx,beryljct,423,14JAN2017:22:15:00,32.1,28.5,86,0,11.5,7.4,34,0.00,0.00,0.00,34.4,36.4,28
15min,AgWx,beryljct,423,14JAN2017:22:30:00,32.0,28.3,86,0,12.1,8.0,34,0.00,0.00,0.00,34.4,36.5,29
15min,AgWx,beryljct,423,14JAN2017:22:45:00,32.0,28.1,85,0,11.3,9.0,29,0.00,0.00,0.00,34.3,36.4,29
15min,AgWx,beryljct,423,14JAN2017:23:00:00,32.1,27.8,84,0,14.1,9.4,34,0.00,0.00,0.00,34.2,36.4,28
15min,AgWx,beryljct,423,14JAN2017:23:15:00,32.0,27.8,84,0,14.3,9.2,33,0.00,0.00,0.00,34.2,36.4,28
15min,AgWx,beryljct,423,14JAN2017:23:30:00,32.0,27.9,85,0,11.0,8.4,35,0.00,0.00,0.00,34.1,36.3,28
15min,AgWx,birchsprings,428,14JAN2017:00:00:00,20.1,19.1,96,0,5.2,2.9,325,0.00,0.00,0.00,26.0,0.0,.
15min,AgWx,birchsprings,428,14JAN2017:00:15:00,19.9,18.9,96,0,6.0,3.1,315,0.00,0.00,0.00,26.0,0.0,.
15min,AgWx,birchsprings,428,14JAN2017:00:30:00,19.5,18.6,96,0,4.9,3.2,330,0.00,0.00,0.00,26.0,0.0,.
15min,AgWx,birchsprings,428,14JAN2017:00:45:00,19.4,18.5,96,0,3.9,2.7,339,0.00,0.00,0.00,26.0,0.0,.
15min,AgWx,birchsprings,428,14JAN2017:01:00:00,19.7,18.5,96,0,4.2,2.5,339,0.00,0.00,0.00,26.0,0.0,.
15min,AgWx,birchsprings,428,14JAN2017:01:15:00,19.7,18.6,96,0,4.0,2.6,333,0.00,0.00,0.00,26.1,0.0,.
15min,AgWx,birchsprings,428,14JAN2017:01:30:00,19.5,18.6,96,0,4.1,2.1,314,0.00,0.00,0.00,26.2,0.0,.
15min,AgWx,birchsprings,428,14JAN2017:01:45:00,19.7,18.6,96,0,2.4,1.4,313,0.00,0.00,0.00,26.1,0.0,.
15min,AgWx,birchsprings,428,14JAN2017:02:00:00,19.5,18.7,96,0,3.6,1.7,339,0.00,0.00,0.00,26.1,0.0,.
15min,AgWx,birchsprings,428,14JAN2017:02:15:00,19.5,18.4,96,0,4.0,2.3,323,0.00,0.00,0.00,26.0,0.0,.
15min,AgWx,birchsprings,428,14JAN2017:02:30:00,19.5,18.4,96,0,3.0,1.8,314,0.00,0.00,0.00,26.0,0.0,.
15min,AgWx,birchsprings,428,14JAN2017:02:45:00,19.4,18.5,96,0,4.5,2.4,318,0.00,0.00,0.00,26.0,0.0,.
15min,AgWx,birchsprings,428,14JAN2017:03:00:00,19.2,18.2,96,0,5.6,3.1,333,0.00,0.00,0.00,26.1,0.0,.
15min,AgWx,birchsprings,428,14JAN2017:03:15:00,19.1,18.2,96,0,4.7,2.9,308,0.00,0.00,0.00,26.0,0.0,.
15min,AgWx,birchsprings,428,14JAN2017:03:30:00,19.4,18.1,96,0,3.8,2.4,322,0.00,0.00,0.00,26.0,0.0,.
15min,AgWx,birchsprings,428,14JAN2017:03:45:00,19.3,18.2,95,0,4.2,2.7,326,0.00,0.00,0.00,26.1,0.0,.
15min,AgWx,birchsprings,428,14JAN2017:04:00:00,19.3,18.1,95,0,5.1,2.6,318,0.00,0.00,0.00,26.0,0.0,.
15min,AgWx,birchsprings,428,14JAN2017:04:15:00,19.4,18.1,95,0,4.3,2.7,329,0.00,0.00,0.00,26.0,0.0,.
15min,AgWx,birchsprings,428,14JAN2017:04:30:00,19.3,18.3,95,0,4.1,2.1,335,0.00,0.00,0.00,26.1,0.0,.
15min,AgWx,birchsprings,428,14JAN2017:04:45:00,19.2,18.3,96,0,3.7,1.9,345,0.00,0.00,0.00,26.0,0.0,.
15min,AgWx,birchsprings,428,14JAN2017:05:00:00,19.0,18.2,96,0,3.0,1.8,17,0.00,0.00,0.00,26.0,0.0,.
15min,AgWx,birchsprings,428,14JAN2017:05:15:00,19.0,18.0,96,0,3.0,0.5,203,0.00,0.00,0.00,26.1,0.0,.
15min,AgWx,birchsprings,428,14JAN2017:05:30:00,19.0,17.9,96,0,3.4,1.2,37,0.00,0.00,0.00,26.0,0.0,.
15min,AgWx,birchsprings,428,14JAN2017:05:45:00,18.9,17.9,96,0,3.2,1.8,335,0.00,0.00,0.00,26.0,0.0,.
15min,AgWx,birchsprings,428,14JAN2017:06:00:00,18.9,17.9,96,0,3.2,1.8,356,0.00,0.00,0.00,26.0,0.0,.
15min,AgWx,birchsprings,428,14JAN2017:06:15:00,18.9,17.9,96,0,2.8,1.8,358,0.00,0.00,0.00,25.9,0.0,.
15min,AgWx,birchsprings,428,14JAN2017:06:30:00,19.0,17.9,96,0,2.9,2.0,341,0.00,0.00,0.00,26.0,0.0,.
15min,AgWx,birchsprings,428,14JAN2017:06:45:00,19.0,18.0,96,0,3.6,2.1,303,0.00,0.00,0.00,26.0,0.0,.
15min,AgWx,birchsprings,428,14JAN2017:07:00:00,18.3,17.5,96,0,5.8,3.5,313,0.00,0.00,0.00,26.0,0.0,.
15min,AgWx,birchsprings,428,14JAN2017:07:15:00,17.8,17.0,96,0,6.4,4.0,323,0.00,0.00,0.00,26.0,0.0,.
15min,AgWx,birchsprings,428,14JAN2017:07:30:00,17.7,16.8,96,0,5.8,3.6,324,0.00,0.00,0.00,26.0,0.0,.
15min,AgWx,birchsprings,428,14JAN2017:07:45:00,17.8,16.7,96,1,6.7,3.8,318,0.00,0.00,0.00,26.0,0.0,.
15min,AgWx,birchsprings,428,14JAN2017:08:00:00,17.6,16.7,96,5,5.9,3.7,317,0.00,0.00,0.00,25.9,0.0,.
15min,AgWx,birchsprings,428,14JAN2017:08:15:00,17.4,16.4,95,13,6.8,4.3,322,0.00,0.00,0.00,26.0,0.0,.
15min,AgWx,birchsprings,428,14JAN2017:08:30:00,17.1,16.2,95,23,6.6,3.3,314,0.00,0.00,0.00,25.9,0.0,.
15min,AgWx,birchsprings,428,14JAN2017:08:45:00,16.6,15.5,95,37,7.4,4.4,327,0.00,0.00,0.00,26.0,0.0,.
15min,AgWx,birchsprings,428,14JAN2017:09:00:00,16.7,15.1,94,49,6.9,4.6,325,0.00,0.00,0.00,25.9,0.0,.
15min,AgWx,birchsprings,428,14JAN2017:09:15:00,16.7,15.0,94,59,5.9,3.3,311,0.00,0.00,0.00,26.0,0.0,.
15min,AgWx,birchsprings,428,14JAN2017:09:30:00,16.8,15.1,93,80,5.5,3.2,317,0.00,0.00,0.00,26.0,0.0,.
15min,AgWx,birchsprings,428,14JAN2017:09:45:00,17.1,15.3,93,100,5.5,3.6,329,0.00,0.00,0.00,26.0,0.0,.
15min,AgWx,birchsprings,428,14JAN2017:10:00:00,17.2,15.5,93,112,5.7,3.5,341,0.00,0.00,0.00,25.9,0.0,.
15min,AgWx,birchsprings,428,14JAN2017:10:15:00,17.9,16.0,94,124,4.9,3.0,332,0.00,0.00,0.00,25.9,0.0,.
15min,AgWx,birchsprings,428,14JAN2017:10:30:00,18.5,16.7,94,149,3.9,2.2,322,0.00,0.00,0.00,25.9,0.0,.
15min,AgWx,birchsprings,428,14JAN2017:10:45:00,18.7,17.0,94,170,3.7,2.1,315,0.00,0.00,0.00,25.9,0.0,.
15min,AgWx,birchsprings,428,14JAN2017:11:00:00,19.2,17.5,94,180,4.1,2.2,322,0.00,0.00,0.00,25.9,0.0,.
15min,AgWx,birchsprings,428,14JAN2017:11:15:00,19.6,17.8,94,186,4.1,2.6,321,0.00,0.00,0.00,26.0,0.0,.
15min,AgWx,birchsprings,428,14JAN2017:11:30:00,19.6,18.1,94,209,3.8,2.3,308,0.00,0.00,0.00,25.9,0.0,.
15min,AgWx,birchsprings,428,14JAN2017:11:45:00,19.8,18.0,93,226,4.0,2.3,298,0.00,0.00,0.00,25.9,0.0,.
15min,AgWx,birchsprings,428,14JAN2017:12:00:00,19.4,17.8,93,230,4.6,2.9,279,0.00,0.00,0.00,25.9,0.0,.
15min,AgWx,birchsprings,428,14JAN2017:12:15:00,19.8,17.7,92,230,4.3,2.7,264,0.00,0.00,0.00,25.9,0.0,.
15min,AgWx,birchsprings,428,14JAN2017:12:30:00,20.3,18.0,92,230,4.1,2.6,238,0.00,0.00,0.00,25.9,0.0,.
15min,AgWx,birchsprings,428,14JAN2017:12:45:00,20.5,18.3,92,231,4.8,2.8,243,0.00,0.00,0.00,25.9,0.0,.
15min,AgWx,birchsprings,428,14JAN2017:13:00:00,20.4,18.5,92,233,5.6,2.4,277,0.00,0.00,0.00,26.0,0.0,.
15min,AgWx,birchsprings,428,14JAN2017:13:15:00,20.4,18.5,92,241,5.1,3.1,264,0.00,0.00,0.00,26.0,0.0,.
15min,AgWx,birchsprings,428,14JAN2017:13:30:00,20.9,19.1,93,233,3.4,1.6,314,0.00,0.00,0.00,26.0,0.0,.
15min,AgWx,birchsprings,428,14JAN2017:13:45:00,21.2,19.6,93,205,2.5,0.9,306,0.00,0.00,0.00,26.0,0.0,.
15min,AgWx,birchsprings,428,14JAN2017:14:00:00,21.2,19.1,92,195,4.1,2.0,242,0.00,0.00,0.00,26.0,0.0,.
15min,AgWx,birchsprings,428,14JAN2017:14:15:00,21.5,19.7,93,192,3.0,1.5,289,0.00,0.00,0.00,26.0,0.0,.
15min,AgWx,birchsprings,428,14JAN2017:14:30:00,21.5,19.7,93,194,2.7,1.4,309,0.00,0.00,0.00,26.0,0.0,.
15min,AgWx,birchsprings,428,14JAN2017:14:45:00,21.7,19.8,93,160,1.8,0.7,328,0.00,0.00,0.00,26.0,0.0,.
15min,AgWx,birchsprings,428,14JAN2017:15:00:00,21.8,20.0,93,119,2.5,0.9,208,0.00,0.00,0.00,26.0,0.0,.
15min,AgWx,birchsprings,428,14JAN2017:15:15:00,21.7,19.9,92,94,2.5,1.2,215,0.00,0.00,0.00,26.0,0.0,.
15min,AgWx,birchsprings,428,14JAN2017:15:30:00,21.4,19.7,92,73,3.0,1.7,212,0.00,0.00,0.00,26.1,0.0,.
15min,AgWx,birchsprings,428,14JAN2017:15:45:00,21.6,20.0,93,56,2.8,0.3,254,0.00,0.00,0.00,26.1,0.0,.
15min,AgWx,birchsprings,428,14JAN2017:16:00:00,21.0,19.6,93,42,3.7,1.8,25,0.00,0.00,0.00,26.0,0.0,.
15min,AgWx,birchsprings,428,14JAN2017:16:15:00,21.1,19.6,94,35,4.0,2.1,19,0.00,0.00,0.00,26.1,0.0,.
15min,AgWx,birchsprings,428,14JAN2017:16:30:00,21.2,19.6,94,26,3.4,2.0,9.6,0.00,0.00,0.00,26.2,0.0,.
15min,AgWx,birchsprings,428,14JAN2017:16:45:00,21.0,19.6,94,16,3.5,2.2,20,0.00,0.00,0.00,26.1,0.0,.
15min,AgWx,birchsprings,428,14JAN2017:17:00:00,20.5,19.3,94,7,4.9,3.1,35,0.00,0.00,0.00,26.1,0.0,.
15min,AgWx,birchsprings,428,14JAN2017:17:15:00,20.5,19.2,95,3,4.3,2.8,24,0.00,0.00,0.00,26.2,0.0,.
15min,AgWx,birchsprings,428,14JAN2017:17:30:00,20.7,19.3,95,1,3.3,2.3,19,0.00,0.00,0.00,26.2,0.0,.
15min,AgWx,birchsprings,428,14JAN2017:17:45:00,20.8,19.4,95,0,2.8,1.8,3.1,0.00,0.00,0.00,26.1,0.0,.
15min,AgWx,birchsprings,428,14JAN2017:18:00:00,20.7,19.4,95,0,3.9,2.7,13,0.00,0.00,0.00,26.2,0.0,.
15min,AgWx,birchsprings,428,14JAN2017:18:15:00,20.5,19.4,95,0,4.6,3.2,11,0.00,0.00,0.00,26.1,0.0,.
15min,AgWx,birchsprings,428,14JAN2017:18:30:00,20.6,19.4,95,0,4.8,2.7,10,0.00,0.00,0.00,26.1,0.0,.
15min,AgWx,birchsprings,428,14JAN2017:18:45:00,20.4,19.4,96,0,4.2,2.8,4.5,0.00,0.00,0.00,26.1,0.0,.
15min,AgWx,birchsprings,428,14JAN2017:19:00:00,20.4,19.4,96,0,3.5,2.1,11,0.00,0.00,0.00,26.1,0.0,.
15min,AgWx,birchsprings,428,14JAN2017:19:15:00,20.6,19.4,96,0,3.3,1.8,4.7,0.00,0.00,0.00,26.2,0.0,.
15min,AgWx,birchsprings,428,14JAN2017:19:30:00,20.7,19.5,95,0,3.0,1.5,353,0.00,0.00,0.00,26.2,0.0,.
15min,AgWx,birchsprings,428,14JAN2017:19:45:00,20.8,19.5,95,0,2.9,1.5,344,0.00,0.00,0.00,26.2,0.0,.
15min,AgWx,birchsprings,428,14JAN2017:20:00:00,20.6,19.4,95,0,4.3,2.1,342,0.00,0.00,0.00,26.2,0.0,.
15min,AgWx,birchsprings,428,14JAN2017:20:15:00,20.6,19.4,95,0,5.0,2.5,345,0.00,0.00,0.00,26.2,0.0,.
15min,AgWx,birchsprings,428,14JAN2017:20:30:00,20.3,19.3,95,0,5.0,2.4,330,0.00,0.00,0.00,26.1,0.0,.
15min,AgWx,birchsprings,428,14JAN2017:20:45:00,20.1,19.0,95,0,5.9,3.3,335,0.00,0.00,0.00,26.2,0.0,.
15min,AgWx,birchsprings,428,14JAN2017:21:00:00,20.0,18.9,95,0,4.8,2.9,354,0.00,0.00,0.00,26.1,0.0,.
15min,AgWx,birchsprings,428,14JAN2017:21:15:00,20.0,18.8,95,0,4.6,2.5,351,0.00,0.00,0.00,26.1,0.0,.
15min,AgWx,birchsprings,428,14JAN2017:21:30:00,19.7,18.7,95,0,4.6,3.0,8.1,0.00,0.00,0.00,26.2,0.0,.
15min,AgWx,birchsprings,428,14JAN2017:21:45:00,19.6,18.5,95,0,4.3,3.1,353,0.00,0.00,0.00,26.1,0.0,.
15min,AgWx,birchsprings,428,14JAN2017:22:00:00,19.5,18.5,95,0,4.5,2.5,344,0.00,0.00,0.00,26.1,0.0,.
15min,AgWx,birchsprings,428,14JAN2017:22:15:00,19.5,18.3,95,0,5.1,3.0,336,0.00,0.00,0.00,26.1,0.0,.
15min,AgWx,birchsprings,428,14JAN2017:22:30:00,19.2,18.1,95,0,4.6,3.0,315,0.00,0.00,0.00,26.1,0.0,.
15min,AgWx,birchsprings,428,14JAN2017:22:45:00,19.2,18.1,95,0,4.1,2.4,313,0.00,0.00,0.00,26.1,0.0,.
15min,AgWx,birchsprings,428,14JAN2017:23:00:00,19.3,18.1,95,0,4.1,2.2,324,0.00,0.00,0.00,26.2,0.0,.
15min,AgWx,birchsprings,428,14JAN2017:23:15:00,19.4,18.1,95,0,3.9,2.4,325,0.00,0.00,0.00,26.1,0.0,.
15min,AgWx,birchsprings,428,14JAN2017:23:30:00,18.9,17.8,95,0,5.0,3.1,347,0.00,0.00,0.00,26.2,0.0,.
15min,AgWx,birchsprings,428,14JAN2017:23:45:00,18.7,17.4,95,0,5.0,3.3,336,0.00,0.00,0.00,26.1,0.0,.
15min,AgWx,blo,425,14JAN2017:00:00:00,21.2,18.0,86,0,2.1,0.4,261,0.00,0.00,0.02,34.9,35.9,51
15min,AgWx,blo,425,14JAN2017:00:15:00,21.3,17.9,88,0,2.6,1.7,234,0.00,0.00,0.02,34.8,36.0,51
15min,AgWx,blo,425,14JAN2017:00:30:00,21.8,18.7,88,0,1.6,0.8,237,0.00,0.00,0.02,34.8,35.9,51
15min,AgWx,blo,425,14JAN2017:00:45:00,20.6,17.9,89,0,3.1,2.3,223,0.00,0.00,0.02,34.8,35.9,51
15min,AgWx,blo,425,14JAN2017:01:00:00,21.4,18.4,90,0,3.0,2.0,236,0.00,0.00,0.02,34.8,35.9,50
15min,AgWx,blo,425,14JAN2017:01:15:00,21.5,19.3,92,0,6.7,4.2,240,0.00,0.00,0.02,34.8,35.9,51
15min,AgWx,blo,425,14JAN2017:01:30:00,20.4,19.2,93,0,5.5,3.3,260,0.00,0.00,0.02,34.9,35.9,51
15min,AgWx,blo,425,14JAN2017:01:45:00,19.8,18.7,94,0,3.5,2.4,229,0.00,0.00,0.02,34.9,35.9,51
15min,AgWx,blo,425,14JAN2017:02:00:00,18.5,18.3,94,0,3.8,2.4,229,0.00,0.00,0.02,34.8,35.9,50
15min,AgWx,blo,425,14JAN2017:02:15:00,18.9,17.2,94,0,4.2,3.0,220,0.00,0.00,0.02,34.8,35.9,50
15min,AgWx,blo,425,14JAN2017:02:30:00,19.7,17.8,94,0,3.1,2.0,229,0.00,0.00,0.02,34.8,35.8,51
15min,AgWx,blo,425,14JAN2017:02:45:00,19.0,17.6,93,0,3.9,2.7,231,0.00,0.00,0.02,34.9,35.9,50
15min,AgWx,blo,425,14JAN2017:03:00:00,19.5,17.7,95,0,3.0,2.4,240,0.00,0.00,0.02,34.9,35.9,51
15min,AgWx,blo,425,14JAN2017:03:15:00,17.5,17.4,95,0,3.7,2.5,235,0.00,0.00,0.02,34.8,35.9,51
15min,AgWx,blo,425,14JAN2017:03:30:00,19.6,17.2,96,0,4.1,3.2,253,0.00,0.00,0.02,34.9,35.9,51
15min,AgWx,blo,425,14JAN2017:03:45:00,19.2,17.1,95,0,3.2,2.2,259,0.00,0.00,0.02,34.9,35.9,51
15min,AgWx,blo,425,14JAN2017:04:00:00,20.2,18.7,95,0,3.0,2.3,295,0.00,0.00,0.02,34.8,35.9,50
15min,AgWx,blo,425,14JAN2017:04:15:00,19.4,16.8,92,0,3.9,2.8,244,0.00,0.00,0.02,34.8,35.8,51
15min,AgWx,blo,425,14JAN2017:04:30:00,18.7,18.2,92,0,3.5,2.6,279,0.00,0.00,0.02,34.8,35.9,51
15min,AgWx,blo,425,14JAN2017:04:45:00,20.7,18.2,92,0,3.2,2.1,295,0.00,0.00,0.02,34.8,35.9,51
15min,AgWx,blo,425,14JAN2017:05:00:00,20.1,18.3,90,0,3.4,2.3,267,0.00,0.00,0.02,34.8,35.9,51
15min,AgWx,blo,425,14JAN2017:05:15:00,20.7,18.5,91,0,3.0,1.7,254,0.00,0.00,0.02,34.8,35.9,50
15min,AgWx,blo,425,14JAN2017:05:30:00,20.7,18.4,90,0,1.9,0.7,257,0.00,0.00,0.02,34.8,35.9,51
15min,AgWx,blo,425,14JAN2017:05:45:00,21.0,19.0,92,0,1.3,0.3,280,0.00,0.00,0.02,34.8,35.9,51
15min,AgWx,blo,425,14JAN2017:06:00:00,21.3,19.3,93,0,2.0,1.2,284,0.00,0.00,0.02,34.8,35.9,50
15min,AgWx,blo,425,14JAN2017:06:15:00,21.2,19.7,93,0,1.7,0.8,303,0.00,0.00,0.02,34.8,35.9,51
15min,AgWx,blo,425,14JAN2017:06:30:00,21.4,19.8,94,0,2.0,0.5,336,0.00,0.00,0.02,34.8,35.9,51
15min,AgWx,blo,425,14JAN2017:06:45:00,21.1,19.9,95,0,2.1,1.3,302,0.00,0.00,0.02,34.8,35.9,51
15min,AgWx,blo,425,14JAN2017:07:00:00,21.3,19.9,95,0,2.7,1.7,299,0.00,0.00,0.02,34.8,35.9,51
15min,AgWx,blo,425,14JAN2017:07:15:00,21.1,20.0,95,0,3.1,2.1,297,0.00,0.00,0.02,34.8,35.9,50
15min,AgWx,blo,425,14JAN2017:07:30:00,21.0,20.1,96,0,4.1,2.6,310,0.00,0.00,0.02,34.9,35.8,50
15min,AgWx,blo,425,14JAN2017:07:45:00,20.8,19.9,96,1,3.4,2.1,333,0.00,0.00,0.02,34.8,35.9,51
15min,AgWx,blo,425,14JAN2017:08:00:00,20.8,19.8,96,8,2.7,1.9,329,0.00,0.00,0.02,34.8,35.9,51
15min,AgWx,blo,425,14JAN2017:08:15:00,20.9,19.9,96,35,3.4,2.0,338,0.00,0.00,0.02,34.8,35.9,50
15min,AgWx,blo,425,14JAN2017:08:30:00,21.6,19.9,95,97,3.2,2.3,13,0.00,0.00,0.02,34.9,35.9,51
15min,AgWx,blo,425,14JAN2017:08:45:00,22.4,20.2,92,172,2.1,1.2,311,0.00,0.00,0.02,34.8,35.9,51
15min,AgWx,blo,425,14JAN2017:09:00:00,22.8,20.1,89,167,1.7,0.8,259,0.00,0.00,0.02,34.8,35.9,51
15min,AgWx,blo,425,14JAN2017:09:15:00,22.3,20.1,90,148,3.0,1.4,204,0.00,0.00,0.02,34.8,35.9,50
15min,AgWx,blo,425,14JAN2017:09:30:00,23.2,20.5,91,130,2.1,0.6,212,0.00,0.00,0.02,34.8,35.9,51
15min,AgWx,blo,425,14JAN2017:09:45:00,23.2,20.5,89,173,3.3,1.7,113,0.00,0.00,0.02,34.8,35.9,51
15min,AgWx,blo,425,14JAN2017:10:00:00,22.7,20.1,90,207,4.2,1.6,184,0.00,0.00,0.02,34.8,35.9,51
15min,AgWx,blo,425,14JAN2017:10:15:00,23.0,20.2,89,249,2.9,1.1,182,0.00,0.00,0.02,34.8,35.8,51
15min,AgWx,blo,425,14JAN2017:10:30:00,23.3,20.3,86,315,4.6,1.5,172,0.00,0.00,0.02,34.8,35.9,51
15min,AgWx,blo,425,14JAN2017:10:45:00,24.1,20.0,87,441,4.8,3.0,278,0.00,0.00,0.02,34.8,35.8,51
15min,AgWx,blo,425,14JAN2017:11:00:00,25.2,20.5,79,425,2.5,1.0,93,0.00,0.00,0.02,34.8,35.8,51
15min,AgWx,blo,425,14JAN2017:11:15:00,27.5,20.5,79,447,1.3,0.3,31,0.01,0.01,0.03,34.8,35.9,51
15min,AgWx,blo,425,14JAN2017:11:30:00,29.6,20.3,70,465,2.5,1.1,125,0.00,0.01,0.03,34.8,35.9,51
15min,AgWx,blo,425,14JAN2017:11:45:00,24.1,19.2,71,480,5.3,3.1,119,0.03,0.04,0.06,34.8,35.9,51
15min,AgWx,blo,425,14JAN2017:12:00:00,25.6,19.4,81,492,5.2,3.3,124,0.00,0.04,0.06,34.8,35.9,51
15min,AgWx,blo,425,14JAN2017:12:15:00,25.1,19.6,80,500,5.2,2.7,138,0.01,0.04,0.07,34.7,35.9,51